EW5732 Weather Reports


time (UTC)temp
C
wind
direction
speed
KPH
gust
KPH
rain 1hr
cm
rain 24hr
cm
rain mn
cm
humidity
%
barometer
mb
20260507171505 -17 155 0.0 0.0 0.00 0.00 0.00 1018.1
20260507170101 -17 157 0.0 0.0 0.00 0.00 0.00 1018.0
20260507164605 -17 313 0.0 0.0 0.00 0.00 0.00 1017.7
20260507163051 -17 298 0.0 0.0 0.00 0.00 0.00 1017.7
20260507161603 -17 267 0.0 0.0 0.00 0.00 0.00 1017.7
20260507160101 -17 252 0.0 0.0 0.00 0.00 0.00 1017.8
20260507154540 -17 261 0.0 0.0 0.00 0.00 0.00 1017.8
20260507153036 -17 284 0.0 0.0 0.00 0.00 0.00 1017.7
20260507151535 -17 348 0.0 0.0 0.00 0.00 0.00 1017.6
20260507150031 -17 342 0.0 0.0 0.00 0.00 0.00 1017.6
20260507144541 -17 313 0.0 0.0 0.00 0.00 0.00 1017.5
20260507143023 -17 277 0.0 0.0 0.00 0.00 0.00 1017.5
20260507141523 -17 342 0.0 0.0 0.00 0.00 0.00 1017.5
20260507140013 -17 22 0.0 0.0 0.00 0.00 0.00 1017.5
20260507134509 -17 302 0.0 0.0 0.00 0.00 0.00 1017.5
20260507133010 -17 288 0.0 0.0 0.00 0.00 0.00 1017.6
20260507131501 -17 261 0.0 0.0 0.00 0.00 0.00 1017.6
20260507130058 -17 325 0.0 0.0 0.00 0.00 0.00 1017.5
20260507124553 -17 288 0.0 0.0 0.00 0.00 0.00 1017.4
20260507123051 -17 286 0.0 0.0 0.00 0.00 0.00 1017.3
20260507121547 -17 332 0.0 0.0 0.00 0.00 0.00 1017.2
20260507120042 -17 298 0.0 0.0 0.00 0.00 0.00 1017.2
20260507114538 -17 350 0.0 0.0 0.00 0.00 0.00 1017.2
20260507113037 -17 277 0.0 0.0 0.00 0.00 0.00 1017.1
20260507111538 -17 268 0.0 0.0 0.00 0.00 0.00 1017.2
20260507110031 -17 313 0.0 0.0 0.00 0.00 0.00 1017.1
20260507104524 -17 296 0.0 0.0 0.00 0.00 0.00 1017.1
20260507103023 -17 319 0.0 0.0 0.00 0.00 0.00 1017.2
20260507101519 -17 341 0.0 0.0 0.00 0.00 0.00 1017.0
20260507100015 -17 311 0.0 0.0 0.00 0.00 0.00 1017.0
20260507094510 -17 271 0.0 0.0 0.00 0.00 0.00 1017.0
20260507093010 -17 26 0.0 0.0 0.00 0.00 0.00 1016.9
20260507091502 -17 323 0.0 0.0 0.00 0.00 0.00 1016.8
20260507090112 -17 315 0.0 0.0 0.00 0.00 0.00 1016.8
20260507084553 -17 309 0.0 0.0 0.00 0.00 0.00 1016.8
20260507083049 -17 301 0.0 0.0 0.00 0.00 0.00 1016.8
20260507081547 -17 336 0.0 0.0 0.00 0.00 0.00 1016.6
20260507080043 -17 360 0.0 0.0 0.00 0.00 0.00 1016.5
20260507074539 -17 288 0.0 0.0 0.00 0.00 0.00 1016.4
20260507073034 -17 355 0.0 0.0 0.00 0.00 0.00 1016.3
20260507071533 -17 25 0.0 0.0 0.00 0.00 0.00 1016.2
20260507070028 -17 59 0.0 0.0 0.00 0.00 0.00 1016.1
20260507064524 -17 322 0.0 0.0 0.00 0.00 0.00 1016.0
20260507063021 -17 351 0.0 0.0 0.00 0.00 0.00 1016.0
20260507061511 -17 331 0.0 0.0 0.00 0.00 0.00 1016.0
20260507060006 -17 14 0.0 0.0 0.00 0.00 0.00 1015.9
20260507054502 -17 239 0.0 0.0 0.00 0.00 0.00 1015.8
20260507053058 -17 275 0.0 0.0 0.00 0.00 0.00 1015.6
20260507051557 -17 246 0.0 0.0 0.00 0.00 0.00 1015.6
20260507050052 -17 246 0.0 0.0 0.00 0.00 0.00 1015.5
20260507044548 -17 0.0 0.0 0.00 0.00 0.00 1015.4
20260507043045 -17 0.0 0.0 0.00 0.00 0.00 1015.3
20260507041551 -17 0.0 0.0 0.00 0.00 0.00 1015.2
20260507040036 -17 0.0 0.0 0.00 0.00 0.00 1015.2
20260507034531 -17 0.0 0.0 0.00 0.00 0.00 1015.1
20260507033032 -17 0.0 0.0 0.00 0.00 0.00 1015.0
20260507031524 -17 0.0 0.0 0.00 0.00 0.00 1014.9
20260507030019 -17 0.0 0.0 0.00 0.00 0.00 1014.8
20260507024515 -17 0.0 0.0 0.00 0.00 0.00 1014.8
20260507023010 -17 0.0 0.0 0.00 0.00 0.00 1014.6
20260507021511 -17 0.0 0.0 0.00 0.00 0.00 1014.5
20260507020006 -17 0.0 0.0 0.00 0.00 0.00 1014.5
20260507014506 -17 0.0 0.0 0.00 0.00 0.00 1014.4
20260507013114 -17 0.0 0.0 0.00 0.00 0.00 1014.3
20260507011557 -17 0.0 0.0 0.00 0.00 0.00 1014.2
20260507010053 -17 0.0 0.0 0.00 0.00 0.00 1014.2
20260507004549 -17 0.0 0.0 0.00 0.00 0.00 1014.2
20260507003044 -17 0.0 0.0 0.00 0.00 0.00 1014.2
20260507001549 -17 0.0 0.0 0.00 0.00 0.00 1014.3
20260507000033 -17 0.0 0.0 0.00 0.00 0.00 1014.3
20260506234528 -17 0.0 0.0 0.00 0.00 0.00 1014.2
20260506233025 -17 0.0 0.0 0.00 0.00 0.00 1014.2
20260506231522 -17 0.0 0.0 0.00 0.00 0.00 1014.3
20260506230017 -17 0.0 0.0 0.00 0.00 0.00 1014.2
20260506224512 -17 0.0 0.0 0.00 0.00 0.00 1014.0
20260506223007 -17 0.0 0.0 0.00 0.00 0.00 1014.0
20260506221504 -17 0.0 0.0 0.00 0.00 0.00 1013.9
20260506220101 -17 0.0 0.0 0.00 0.00 0.00 1013.9
20260506214608 -17 0.0 0.0 0.00 0.00 0.00 1013.9
20260506213052 -17 0.0 0.0 0.00 0.00 0.00 1013.9
20260506211552 -17 0.0 0.0 0.00 0.00 0.00 1013.7
20260506210048 -17 0.0 0.0 0.00 0.00 0.00 1013.7
20260506204544 -17 0.0 0.0 0.00 0.00 0.00 1013.7
20260506203044 -17 0.0 0.0 0.00 0.00 0.00 1013.7
20260506201534 -17 0.0 0.0 0.00 0.00 0.00 1013.5
20260506200029 -17 0.0 0.0 0.00 0.00 0.00 1013.5
20260506194525 -17 0.0 0.0 0.00 0.00 0.00 1013.4
20260506193020 -17 0.0 0.0 0.00 0.00 0.00 1013.2
20260506191521 -17 0.0 0.0 0.00 0.00 0.00 1013.2
20260506190018 -17 0.0 0.0 0.00 0.00 0.00 1013.1
20260506184512 -17 0.0 0.0 0.00 0.00 0.00 1013.0
20260506183007 -17 0.0 0.0 0.00 0.00 0.00 1012.8
20260506181506 -17 0.0 0.0 0.00 0.00 0.00 1012.5
20260506180005 -17 0.0 0.0 0.00 0.00 0.00 1012.3
20260506174559 -17 62 0.0 0.0 0.00 0.00 0.00 1012.2
20260506173113 -17 39 0.0 0.0 0.00 0.00 0.00 1012.2